timestamp,wind_dir_avg,wind_spd_avg,wind_spd_max_dir,wind_spd_gust,battery_voltage,lat,long
2023-06-11 00:04:01+00:00,291.0,6.09,293.0,6.6,12.73,47.59359,-54.27349
2023-06-11 00:14:01+00:00,300.0,6.35,302.0,7.27,12.41,47.59359,-54.27349
2023-06-11 00:24:01+00:00,308.0,6.77,309.0,7.62,12.41,47.59359,-54.27349
2023-06-11 00:34:01+00:00,315.0,5.79,312.0,7.08,12.41,47.59359,-54.27349
2023-06-11 00:44:01+00:00,317.0,5.06,315.0,5.93,12.41,47.59359,-54.27349
2023-06-11 00:54:01+00:00,314.0,6.16,317.0,7.8,12.41,47.59359,-54.27349
2023-06-11 01:04:01+00:00,314.0,5.94,311.0,6.8,12.41,47.59359,-54.27349
2023-06-11 01:14:00+00:00,314.0,5.35,314.0,6.63,12.33,47.59359,-54.27349
2023-06-11 01:24:00+00:00,315.0,5.48,314.0,6.21,12.33,47.59359,-54.27349
2023-06-11 01:34:00+00:00,317.0,7.0,318.0,7.97,12.33,47.59359,-54.27349
2023-06-11 01:44:00+00:00,321.0,5.55,320.0,6.07,12.33,47.59359,-54.27349
2023-06-11 01:54:00+00:00,315.0,6.01,320.0,6.71,12.33,47.59359,-54.27349
2023-06-11 02:04:00+00:00,325.0,6.25,327.0,6.89,12.33,47.59359,-54.27349
2023-06-11 02:14:00+00:00,329.0,6.86,328.0,7.79,12.41,47.59359,-54.27349
2023-06-11 02:24:00+00:00,325.0,6.44,321.0,7.29,12.41,47.59359,-54.27349
2023-06-11 02:34:00+00:00,331.0,7.87,333.0,8.61,12.41,47.59359,-54.27349
2023-06-11 02:44:00+00:00,332.0,7.45,330.0,8.09,12.41,47.59359,-54.27349
2023-06-11 02:54:00+00:00,327.0,7.07,326.0,8.24,12.41,47.59359,-54.27349
2023-06-11 03:04:00+00:00,326.0,7.75,326.0,8.71,12.41,47.59359,-54.27349
2023-06-11 03:14:00+00:00,329.0,7.55,322.0,8.93,12.33,47.59359,-54.27349
2023-06-11 03:24:00+00:00,327.0,7.77,331.0,8.58,12.33,47.59359,-54.27349
2023-06-11 03:34:00+00:00,331.0,8.15,325.0,9.11,12.33,47.59359,-54.27349
2023-06-11 03:44:00+00:00,322.0,7.62,323.0,8.84,12.33,47.59359,-54.27349
2023-06-11 03:54:00+00:00,320.0,7.36,322.0,8.71,12.33,47.59359,-54.27349
2023-06-11 04:04:00+00:00,303.0,5.67,300.0,6.39,12.33,47.59359,-54.27349
2023-06-11 04:14:00+00:00,310.0,6.07,314.0,6.76,12.25,47.59359,-54.27349
2023-06-11 04:24:00+00:00,306.0,5.05,300.0,5.74,12.25,47.59359,-54.27349
2023-06-11 04:34:00+00:00,309.0,6.07,310.0,6.88,12.25,47.59359,-54.27349
2023-06-11 04:44:00+00:00,305.0,5.52,305.0,6.18,12.25,47.59359,-54.27349
2023-06-11 04:54:00+00:00,305.0,5.6,303.0,6.83,12.25,47.59359,-54.27349
2023-06-11 05:04:00+00:00,302.0,5.74,298.0,6.74,12.25,47.59359,-54.27349
2023-06-11 05:14:00+00:00,311.0,5.63,318.0,6.21,12.33,47.59359,-54.27349
2023-06-11 05:24:00+00:00,311.0,5.48,306.0,6.07,12.33,47.59359,-54.27349
2023-06-11 05:34:00+00:00,299.0,4.48,299.0,4.99,12.33,47.59359,-54.27349
2023-06-11 05:44:00+00:00,291.0,4.18,293.0,4.57,12.33,47.59359,-54.27349
2023-06-11 05:54:00+00:00,283.0,3.95,282.0,4.64,12.33,47.59359,-54.27349
2023-06-11 06:04:00+00:00,286.0,4.17,285.0,4.69,12.33,47.59359,-54.27349
2023-06-11 06:14:00+00:00,291.0,3.77,294.0,4.18,12.25,47.59359,-54.27349
2023-06-11 06:24:00+00:00,275.0,3.93,279.0,4.36,12.25,47.59359,-54.27349
2023-06-11 06:34:00+00:00,291.0,4.3,290.0,5.04,12.25,47.59359,-54.27349
2023-06-11 06:44:00+00:00,293.0,3.98,297.0,4.88,12.25,47.59359,-54.27349
2023-06-11 06:54:00+00:00,290.0,3.99,293.0,4.46,12.25,47.59359,-54.27349
2023-06-11 07:04:00+00:00,294.0,4.02,301.0,4.74,12.25,47.59359,-54.27349
2023-06-11 07:14:01+00:00,309.0,4.89,309.0,5.5,12.25,47.59359,-54.27349
2023-06-11 07:24:01+00:00,302.0,4.1,296.0,5.1,12.25,47.59359,-54.27349
2023-06-11 07:34:01+00:00,305.0,4.47,309.0,5.48,12.25,47.59359,-54.27349
2023-06-11 07:44:01+00:00,301.0,4.76,308.0,5.48,12.25,47.59359,-54.27349
2023-06-11 07:54:01+00:00,303.0,4.73,305.0,5.41,12.25,47.59359,-54.27349
2023-06-11 08:04:01+00:00,304.0,5.56,305.0,6.35,12.25,47.59359,-54.27349
2023-06-11 08:14:01+00:00,295.0,5.03,297.0,5.79,12.17,47.59359,-54.27349
2023-06-11 08:24:01+00:00,305.0,5.0,305.0,5.88,12.17,47.59359,-54.27349
2023-06-11 08:34:01+00:00,312.0,5.3,318.0,5.96,12.17,47.59359,-54.27349
2023-06-11 08:44:01+00:00,318.0,5.34,321.0,6.16,12.17,47.59359,-54.27349
2023-06-11 08:54:01+00:00,308.0,4.96,303.0,6.41,12.17,47.59359,-54.27349
2023-06-11 09:04:01+00:00,314.0,5.96,311.0,6.63,12.17,47.59359,-54.27349
2023-06-11 09:14:00+00:00,317.0,5.41,320.0,5.85,12.17,47.59359,-54.27349
2023-06-11 09:24:00+00:00,318.0,5.56,314.0,6.29,12.17,47.59359,-54.27349
2023-06-11 09:34:00+00:00,316.0,5.44,319.0,5.9,12.17,47.59359,-54.27349
2023-06-11 09:44:00+00:00,311.0,5.09,305.0,5.95,12.17,47.59359,-54.27349
2023-06-11 09:54:00+00:00,344.0,4.23,346.0,4.61,12.17,47.59359,-54.27349
2023-06-11 10:04:00+00:00,352.0,4.55,352.0,4.88,12.17,47.59359,-54.27349
2023-06-11 10:14:00+00:00,0.0,5.3,1.0,5.85,12.41,47.59359,-54.27349
2023-06-11 10:24:00+00:00,12.0,4.59,17.0,5.11,12.41,47.59359,-54.27349
2023-06-11 10:34:00+00:00,8.0,3.78,8.0,5.01,12.41,47.59359,-54.27349
2023-06-11 10:44:00+00:00,0.0,4.89,1.0,5.43,12.41,47.59359,-54.27349
2023-06-11 10:54:00+00:00,0.0,5.34,3.0,6.01,12.41,47.59359,-54.27349
2023-06-11 11:04:00+00:00,0.0,4.3,2.0,4.88,12.41,47.59359,-54.27349
2023-06-11 11:14:00+00:00,356.0,4.94,357.0,5.65,13.05,47.59359,-54.27349
2023-06-11 11:24:00+00:00,359.0,4.76,359.0,5.03,13.05,47.59359,-54.27349
2023-06-11 11:34:00+00:00,359.0,4.13,358.0,4.75,13.05,47.59359,-54.27349
2023-06-11 11:44:00+00:00,356.0,6.79,356.0,7.45,13.05,47.59359,-54.27349
2023-06-11 11:54:00+00:00,356.0,4.42,353.0,4.66,13.05,47.59359,-54.27349
2023-06-11 12:04:00+00:00,357.0,5.5,357.0,6.55,13.05,47.59359,-54.27349
2023-06-11 12:14:00+00:00,1.0,6.13,3.0,7.36,13.6,47.59359,-54.27349
2023-06-11 12:24:00+00:00,9.0,6.92,29.0,8.19,13.6,47.59359,-54.27349
2023-06-11 12:34:00+00:00,14.0,7.33,18.0,8.89,13.6,47.59359,-54.27349
2023-06-11 12:44:00+00:00,26.0,6.04,32.0,6.82,13.6,47.59359,-54.27349
2023-06-11 12:54:00+00:00,35.0,5.86,41.0,7.25,13.6,47.59359,-54.27349
2023-06-11 13:04:00+00:00,14.0,5.04,32.0,6.57,13.6,47.59359,-54.27349
2023-06-11 13:14:00+00:00,14.0,8.06,20.0,9.4,13.68,47.59359,-54.27349
2023-06-11 13:24:00+00:00,10.0,5.69,6.0,7.02,13.68,47.59359,-54.27349
2023-06-11 13:34:00+00:00,16.0,6.43,19.0,7.41,13.68,47.59359,-54.27349
2023-06-11 13:44:00+00:00,21.0,7.15,29.0,8.28,13.68,47.59359,-54.27349
2023-06-11 13:54:00+00:00,20.0,7.54,19.0,8.49,13.68,47.59359,-54.27349
2023-06-11 14:04:00+00:00,15.0,5.91,19.0,7.33,13.68,47.59359,-54.27349
2023-06-11 14:14:00+00:00,12.0,6.6,25.0,8.0,13.68,47.59359,-54.27349
2023-06-11 14:24:00+00:00,21.0,7.56,26.0,8.77,13.68,47.59359,-54.27349
2023-06-11 14:34:00+00:00,9.0,5.52,23.0,7.13,13.68,47.59359,-54.27349
2023-06-11 14:44:00+00:00,17.0,5.66,21.0,7.2,13.68,47.59359,-54.27349
2023-06-11 14:54:00+00:00,26.0,6.2,28.0,7.35,13.68,47.59359,-54.27349
2023-06-11 15:04:00+00:00,27.0,6.07,19.0,7.98,13.68,47.59359,-54.27349
2023-06-11 15:14:00+00:00,31.0,5.28,30.0,5.78,13.6,47.59359,-54.27349
2023-06-11 15:24:00+00:00,32.0,5.3,35.0,5.86,13.6,47.59359,-54.27349
2023-06-11 15:34:00+00:00,30.0,6.85,31.0,8.15,13.6,47.59359,-54.27349
2023-06-11 15:44:00+00:00,25.0,6.91,25.0,7.65,13.6,47.59359,-54.27349
2023-06-11 15:54:00+00:00,10.0,7.94,15.0,9.14,13.6,47.59359,-54.27349
2023-06-11 16:04:00+00:00,5.0,10.95,3.0,11.93,13.6,47.59359,-54.27349
2023-06-11 16:14:00+00:00,13.0,8.42,12.0,9.6,13.68,47.59359,-54.27349
2023-06-11 16:24:00+00:00,15.0,6.51,24.0,7.95,13.68,47.59359,-54.27349
2023-06-11 16:34:00+00:00,16.0,8.71,15.0,9.54,13.68,47.59359,-54.27349
2023-06-11 16:44:00+00:00,7.0,10.49,5.0,12.59,13.68,47.59359,-54.27349
2023-06-11 16:54:00+00:00,12.0,10.23,12.0,12.42,13.68,47.59359,-54.27349
2023-06-11 17:04:00+00:00,13.0,11.04,13.0,12.47,13.68,47.59359,-54.27349
2023-06-11 17:14:00+00:00,14.0,9.44,8.0,11.57,13.53,47.59359,-54.27349
2023-06-11 17:24:00+00:00,8.0,9.82,358.0,12.5,13.53,47.59359,-54.27349
2023-06-11 17:34:00+00:00,16.0,10.62,20.0,12.42,13.53,47.59359,-54.27349
2023-06-11 17:44:00+00:00,16.0,9.28,14.0,10.18,13.53,47.59359,-54.27349
2023-06-11 17:54:00+00:00,19.0,9.37,24.0,11.01,13.53,47.59359,-54.27349
2023-06-11 18:04:00+00:00,23.0,9.13,24.0,10.26,13.53,47.59359,-54.27349
2023-06-11 18:14:00+00:00,17.0,8.77,19.0,10.05,13.68,47.59359,-54.27349
2023-06-11 18:24:00+00:00,4.0,12.15,9.0,13.77,13.68,47.59359,-54.27349
2023-06-11 18:34:00+00:00,9.0,10.3,11.0,13.52,13.68,47.59359,-54.27349
2023-06-11 18:44:00+00:00,1.0,12.51,4.0,13.54,13.68,47.59359,-54.27349
2023-06-11 18:54:00+00:00,2.0,12.06,2.0,14.1,13.68,47.59359,-54.27349
2023-06-11 19:04:00+00:00,7.0,11.0,6.0,13.51,13.68,47.59359,-54.27349
2023-06-11 19:14:01+00:00,358.0,10.77,358.0,11.7,13.6,47.59359,-54.27349
2023-06-11 19:24:01+00:00,0.0,12.36,2.0,13.78,13.6,47.59359,-54.27349
2023-06-11 19:34:01+00:00,0.0,12.01,2.0,13.66,13.6,47.59359,-54.27349
2023-06-11 19:44:01+00:00,359.0,11.35,356.0,12.96,13.6,47.59359,-54.27349
2023-06-11 19:54:01+00:00,359.0,11.46,358.0,12.85,13.6,47.59359,-54.27349
2023-06-11 20:04:01+00:00,355.0,13.95,356.0,15.91,13.6,47.59359,-54.27349
2023-06-11 20:14:00+00:00,0.0,12.22,356.0,15.02,13.68,47.59359,-54.27349
2023-06-11 20:24:00+00:00,353.0,10.6,354.0,11.8,13.68,47.59359,-54.27349
2023-06-11 20:34:00+00:00,350.0,12.87,343.0,14.72,13.68,47.59359,-54.27349
2023-06-11 20:44:00+00:00,351.0,12.45,349.0,15.67,13.68,47.59359,-54.27349
2023-06-11 20:54:00+00:00,350.0,13.67,350.0,16.11,13.68,47.59359,-54.27349
2023-06-11 21:04:00+00:00,354.0,12.38,353.0,13.87,13.68,47.59359,-54.27349
2023-06-11 21:14:00+00:00,349.0,13.16,348.0,16.03,13.68,47.59359,-54.27349
2023-06-11 21:24:00+00:00,349.0,12.16,350.0,14.87,13.68,47.59359,-54.27349
2023-06-11 21:34:00+00:00,348.0,12.17,352.0,13.87,13.68,47.59359,-54.27349
2023-06-11 21:44:00+00:00,346.0,11.91,348.0,12.74,13.68,47.59359,-54.27349
2023-06-11 21:54:00+00:00,343.0,11.89,343.0,13.79,13.68,47.59359,-54.27349
2023-06-11 22:04:00+00:00,342.0,12.14,344.0,13.34,13.68,47.59359,-54.27349
2023-06-11 22:14:00+00:00,338.0,12.92,341.0,15.2,13.29,47.59359,-54.27349
2023-06-11 22:24:00+00:00,341.0,11.59,340.0,14.04,13.29,47.59359,-54.27349
2023-06-11 22:34:00+00:00,340.0,13.15,339.0,15.21,13.29,47.59359,-54.27349
2023-06-11 22:44:00+00:00,333.0,12.55,343.0,14.59,13.29,47.59359,-54.27349
2023-06-11 22:54:00+00:00,330.0,12.37,330.0,14.91,13.29,47.59359,-54.27349
2023-06-11 23:04:00+00:00,330.0,13.09,323.0,16.08,13.29,47.59359,-54.27349
2023-06-11 23:14:00+00:00,330.0,13.05,328.0,15.26,12.97,47.59359,-54.27349
2023-06-11 23:24:00+00:00,331.0,11.22,335.0,12.66,12.97,47.59359,-54.27349
2023-06-11 23:34:00+00:00,333.0,12.12,338.0,15.36,12.97,47.59359,-54.27349
2023-06-11 23:44:00+00:00,334.0,12.49,331.0,16.01,12.97,47.59359,-54.27349
2023-06-11 23:54:00+00:00,336.0,11.8,339.0,14.0,12.97,47.59359,-54.27349
